This is the latest recevied weather packets stored in our database for station/object OE-11073. If no packets are shown the sender has not sent any weather packets the latest 10 day(s).
| Time | Temp. | Humidity | Pressure | Rain* | Wind** | Luminosity | Snow |
|---|---|---|---|---|---|---|---|
| 1788418512 | 15° C | 80% | - | 0 mm | - | 145 W/m² | - |
| 1788417683 | 15° C | 81% | - | 0 mm | - | 237 W/m² | - |
| 1788417311 | 14.44° C | 82% | - | 0 mm | - | 207 W/m² | - |
| 1788416711 | 13.89° C | 89% | - | 0 mm | - | 138 W/m² | - |
| 1788415884 | 13.33° C | 89% | - | 0 mm | - | 99 W/m² | - |
| 1788415511 | 12.78° C | 90% | - | 0 mm | - | 69 W/m² | - |
| 1788414911 | 12.78° C | 90% | - | 0 mm | - | 77 W/m² | - |
| 1788414083 | 12.78° C | 89% | - | 0 mm | - | 38 W/m² | - |
| 1788413711 | 12.78° C | 89% | - | 0 mm | - | 38 W/m² | - |
| 1788413111 | 12.78° C | 89% | - | 0 mm | - | 23 W/m² | - |
| 1788412284 | 12.78° C | 91% | - | 0 mm | - | 15 W/m² | - |
| 1788411911 | 12.78° C | 91% | - | 0 mm | - | 8 W/m² | - |
| 1788411311 | 12.78° C | 90% | - | 0 mm | - | 8 W/m² | - |
| 1788410483 | 12.78° C | 91% | - | 0 mm | - | 0 W/m² | - |
| 1788410111 | 12.78° C | 90% | - | 0 mm | - | 0 W/m² | - |
| 1788409511 | 12.78° C | 90% | - | 0 mm | - | 0 W/m² | - |
| 1788408684 | 12.78° C | 90% | - | 0 mm | - | 0 W/m² | - |
| 1788408311 | 12.78° C | 90% | - | 0 mm | - | 0 W/m² | - |
| 1788407711 | 13.89° C | 84% | - | 0 mm | - | 0 W/m² | - |
| 1788407111 | 13.89° C | 84% | - | 0 mm | - | 0 W/m² | - |
| 1788406511 | 13.89° C | 84% | - | 0 mm | - | 0 W/m² | - |
| 1788405911 | 13.89° C | 85% | - | 0 mm | - | 0 W/m² | - |
| 1788405084 | 13.33° C | 87% | - | 0 mm | - | 0 W/m² | - |
| 1788404711 | 13.33° C | 84% | - | 0 mm | - | 0 W/m² | - |
| 1788404111 | 13.33° C | 84% | - | 0 mm | - | 0 W/m² | - |
* Rain latest hour (hover to see other rain measurements)
** Current wind speed in m/s (hover to see current wind gust speed)